Overview Statistics Trail Chart Weather Telemetry Raw packets
 

This is the latest recevied weather packets stored in our database for station/object N5ATR. If no packets are shown the sender has not sent any weather packets the latest 10 day(s).

<< 108 109 110 111 112 113 114 >>
Time Temp. Humidity Pressure Rain* Wind** Luminosity Snow
1787866789 28.33° C 31% 1025.2 hPa 0 mm - 376 W/m² -
1787866488 31.11° C 31% 1025.1 hPa 0 mm - 240 W/m² -
1787866187 30.56° C 29% 1025.4 hPa 0 mm - 540 W/m² -
1787865882 29.44° C 31% 1025.1 hPa 0 mm - 366 W/m² -
1787865577 28.89° C 31% 1025.4 hPa 0 mm - 248 W/m² -
1787865272 28.33° C 32% 1025.2 hPa 0 mm - 120 W/m² -
1787864968 28.89° C 31% 1025.5 hPa 0 mm - 119 W/m² -
1787864665 28.89° C 30% 1025.5 hPa 0 mm - 130 W/m² -
1787864363 30.56° C 30% 1025.5 hPa 0 mm - 152 W/m² -
1787864063 29.44° C 31% 1025.7 hPa 0 mm - 771 W/m² -
1787863762 28.33° C 32% 1025.6 hPa 0 mm - 701 W/m² -
1787863461 28.33° C 32% 1025.6 hPa 0 mm - 382 W/m² -
1787863157 28.33° C 31% 1025.6 hPa 0 mm - 143 W/m² -
1787862853 28.33° C 31% 1025.6 hPa 0 mm - 111 W/m² -
1787862552 28.33° C 32% 1025.8 hPa 0 mm - 129 W/m² -
1787862247 28.33° C 32% 1025.8 hPa 0 mm - 102 W/m² -
1787861948 28.33° C 31% 1025.8 hPa 0 mm - 92 W/m² -
1787861648 28.33° C 32% 1026.2 hPa 0 mm - 76 W/m² -
1787861345 28.33° C 31% 1026.2 hPa 0 mm - 77 W/m² -
1787861041 28.89° C 32% 1026.1 hPa 0 mm - 85 W/m² -
1787860739 28.89° C 31% 1026.2 hPa 0 mm - 145 W/m² -
1787860435 28.89° C 31% 1026.2 hPa 0 mm - 132 W/m² -
1787860135 30° C 29% 1026.3 hPa 0 mm - 121 W/m² -
1787859830 30° C 30% 1026.3 hPa 0 mm - 155 W/m² -
1787859525 29.44° C 30% 1026.3 hPa 0 mm - 770 W/m² -

* Rain latest hour (hover to see other rain measurements)
** Current wind speed in m/s (hover to see current wind gust speed)